User: anonymous   Login
Location: Pine Mountain Observatory
(43.7910°N, 120.9377°W)
Time: 06:58:36
(UTC-07:00)
Language:

APEX - Orbit

View from above orbital plane
View from above orbital plane
View from above satellite
View from above satellite

Ground track
Ground track

The orbit data is extracted from the following two-line orbital elements,

1 23191U 94046A   15147.41121086  .00009091  00000-0  33644-3 0  9992
2 23191 069.9287 140.1443 0683105 199.4273 316.8989 14.19080232  9074
Epoch (UTC): 27 May 2015 09:52:08
Eccentricity: 0.0683105
inclination: 69.9287°
perigee height: 336 km
apogee height: 1321 km
right ascension of ascending node: 140.1443°
argument of perigee: 199.4273°
revolutions per day: 14.19080232
mean anomaly at epoch: 316.8989°
orbit number at epoch: 907

The dashed part of the orbit path shows where the satellite is in the earth's shadow,  

DLR